Location: Westminster
(33.3626°N, 96.4619°W)
Time: 20:00:14
(UTC+00:00)

Cosmos 841 Rocket - Pass Details

Date: 03 December 2021
Orbit: 746 x 772 km, 74.0° (Epoch: 26 January)

Event Time Altitude Azimuth Distance (km) Brightness Sun altitude
Rises 23:42:17 0° 188° (S) 3,195 7.2 -5.4°
Reaches altitude 10° 23:44:40 10° 185° (S) 2,270 6.4 -5.9°
Maximum altitude 23:49:45 66° 104° (ESE) 818 3.5 -6.9°
Drops below altitude 10° 23:54:51 10° 23° (NNE) 2,270 5.5 -7.9°
Sets 23:57:13 0° 21° (NNE) 3,196 6.3 -8.3°
